"Period start","avg(HW err(1)/warn(2) (#))","avg(Visibility (m))","avg(Weather code (#))","avg(Precip intensity (mm/h))","min(HW err(1)/warn(2) (#))","max(HW err(1)/warn(2) (#))","std(HW err(1)/warn(2) (#))","med(HW err(1)/warn(2) (#))","min(Visibility (m))","max(Visibility (m))","std(Visibility (m))","med(Visibility (m))","min(Weather code (#))","max(Weather code (#))","std(Weather code (#))","med(Weather code (#))","min(Precip intensity (mm/h))","max(Precip intensity (mm/h))","std(Precip intensity (mm/h))","med(Precip intensity (mm/h))"
2014-07-08 00:00:00,1,43909,0,0.00,0,2,1,0,34717,50000,5653,45140,0,0,0,0,0.00,0.00,0.00,0.00
2014-07-08 00:10:00,2,43888,0,0.00,0,2,1,2,32160,50000,5911,45699,0,0,0,0,0.00,0.00,0.00,0.00
2014-07-08 00:20:00,1,41856,0,0.00,0,2,1,2,27708,50000,8117,44348,0,0,0,0,0.00,0.00,0.00,0.00
2014-07-08 00:30:00,2,40122,0,0.00,2,2,0,2,30071,50000,7799,39524,0,0,0,0,0.00,0.00,0.00,0.00
2014-07-08 00:40:00,2,39620,0,0.00,2,2,0,2,23581,50000,8451,40784,0,0,0,0,0.00,0.00,0.00,0.00
2014-07-08 00:50:00,1,47845,0,0.00,0,2,1,2,39934,50000,3843,50000,0,0,0,0,0.00,0.00,0.00,0.00
2014-07-08 01:00:00,0,44291,0,0.00,0,0,0,0,30934,50000,6701,48218,0,0,0,0,0.00,0.00,0.00,0.00
2014-07-08 01:10:00,0,47693,0,0.00,0,0,0,0,43433,50000,2494,48662,0,0,0,0,0.00,0.00,0.00,0.00
2014-07-08 01:20:00,0,49901,0,0.00,0,0,0,0,49400,50000,204,50000,0,0,0,0,0.00,0.00,0.00,0.00
2014-07-08 01:30:00,0,49656,0,0.00,0,0,0,0,47296,50000,817,50000,0,0,0,0,0.00,0.00,0.00,0.00
2014-07-08 01:40:00,0,49703,0,0.00,0,0,0,0,47031,50000,891,50000,0,0,0,0,0.00,0.00,0.00,0.00
2014-07-08 01:50:00,0,48052,0,0.00,0,0,0,0,42976,50000,2761,50000,0,0,0,0,0.00,0.00,0.00,0.00
2014-07-08 02:00:00,0,50000,0,0.00,0,0,0,0,50000,50000,0,50000,0,0,0,0,0.00,0.00,0.00,0.00
2014-07-08 02:10:00,0,47125,0,0.00,0,0,0,0,40563,50000,3674,49794,0,0,0,0,0.00,0.00,0.00,0.00
2014-07-08 02:20:00,1,44617,0,0.00,0,2,1,0,35849,50000,4968,45121,0,0,0,0,0.00,0.00,0.00,0.00
2014-07-08 02:30:00,1,46566,0,0.00,0,2,1,0,39068,50000,3517,47199,0,0,0,0,0.00,0.00,0.00,0.00
2014-07-08 02:40:00,0,47880,0,0.00,0,2,1,0,42908,50000,2353,48690,0,0,0,0,0.00,0.00,0.00,0.00
2014-07-08 02:50:00,1,46074,0,0.00,0,2,1,0,35850,50000,4636,48241,0,0,0,0,0.00,0.00,0.00,0.00
2014-07-08 03:00:00,0,47130,0,0.00,0,0,0,0,39966,50000,3427,48831,0,0,0,0,0.00,0.00,0.00,0.00
2014-07-08 03:10:00,0,49693,0,0.00,0,0,0,0,46927,50000,922,50000,0,0,0,0,0.00,0.00,0.00,0.00
2014-07-08 03:20:00,0,48265,0,0.00,0,0,0,0,41382,50000,2827,50000,0,0,0,0,0.00,0.00,0.00,0.00
2014-07-08 03:30:00,1,49276,0,0.00,0,2,1,0,45698,50000,1395,50000,0,0,0,0,0.00,0.00,0.00,0.00
2014-07-08 03:40:00,0,49044,0,0.00,0,0,0,0,44704,50000,1602,50000,0,0,0,0,0.00,0.00,0.00,0.00
2014-07-08 03:50:00,0,44234,0,0.00,0,0,0,0,37246,50000,4462,45324,0,0,0,0,0.00,0.00,0.00,0.00
2014-07-08 04:00:00,0,46538,0,0.00,0,0,0,0,39299,50000,3641,47427,0,0,0,0,0.00,0.00,0.00,0.00
2014-07-08 04:10:00,0,47672,0,0.00,0,0,0,0,37897,50000,4318,50000,0,0,0,0,0.00,0.00,0.00,0.00
2014-07-08 04:20:00,0,49240,0,0.00,0,0,0,0,46027,50000,1503,50000,0,0,0,0,0.00,0.00,0.00,0.00
2014-07-08 04:30:00,0,48182,0,0.00,0,0,0,0,36278,50000,4040,50000,0,0,0,0,0.00,0.00,0.00,0.00
2014-07-08 04:40:00,0,49624,0,0.00,0,0,0,0,48641,50000,535,50000,0,0,0,0,0.00,0.00,0.00,0.00
2014-07-08 04:50:00,0,46635,0,0.00,0,0,0,0,38071,50000,4042,48964,0,0,0,0,0.00,0.00,0.00,0.00
2014-07-08 05:00:00,0,49239,0,0.00,0,0,0,0,46592,50000,1186,50000,0,0,0,0,0.00,0.00,0.00,0.00
2014-07-08 05:10:00,0,49017,0,0.00,0,0,0,0,43908,50000,1876,50000,0,0,0,0,0.00,0.00,0.00,0.00
2014-07-08 05:20:00,0,49801,0,0.00,0,0,0,0,48632,50000,432,50000,0,0,0,0,0.00,0.00,0.00,0.00
2014-07-08 05:30:00,0,49036,0,0.00,0,0,0,0,44624,50000,1635,50000,0,0,0,0,0.00,0.00,0.00,0.00
2014-07-08 05:40:00,0,49628,0,0.00,0,0,0,0,47162,50000,863,50000,0,0,0,0,0.00,0.00,0.00,0.00
2014-07-08 05:50:00,0,49805,0,0.00,0,0,0,0,48054,50000,584,50000,0,0,0,0,0.00,0.00,0.00,0.00
2014-07-08 06:00:00,0,50000,0,0.00,0,0,0,0,50000,50000,0,50000,0,0,0,0,0.00,0.00,0.00,0.00
2014-07-08 06:10:00,0,43537,18,1.69,0,0,0,0,24577,50000,9996,50000,0,62,28,0,0.00,10.50,3.48,0.00
2014-07-08 06:20:00,0,48170,61,3.72,0,0,0,0,41520,50000,2877,49742,61,62,0,61,0.00,22.25,6.29,1.57
2014-07-08 06:30:00,0,40127,46,4.54,0,0,0,0,20908,50000,11574,47614,0,62,23,56,0.00,13.45,4.94,2.35
2014-07-08 06:40:00,0,23435,61,5.42,0,0,0,0,14993,35680,7229,20206,61,62,0,61,0.55,12.05,3.64,6.17
2014-07-08 06:50:00,0,39364,58,0.81,0,0,0,0,31662,50000,5642,38560,52,61,4,61,0.15,1.55,0.50,0.73
2014-07-08 07:00:00,0,47676,51,0.22,0,0,0,0,40914,50000,2901,49060,51,52,0,51,0.00,0.65,0.20,0.15
2014-07-08 07:10:00,0,46856,28,0.21,0,0,0,0,40023,50000,3249,48221,0,61,28,26,0.00,0.95,0.31,0.00
2014-07-08 07:20:00,0,48984,20,0.06,0,0,0,0,45993,50000,1596,50000,0,51,25,0,0.00,0.40,0.12,0.00
2014-07-08 07:30:00,0,46446,0,0.00,0,0,0,0,32559,50000,5130,48307,0,0,0,0,0.00,0.00,0.00,0.00
2014-07-08 07:40:00,0,47146,0,0.00,0,0,0,0,36329,50000,4739,49922,0,0,0,0,0.00,0.00,0.00,0.00
2014-07-08 07:50:00,0,45810,0,0.00,0,0,0,0,24944,50000,8020,50000,0,0,0,0,0.00,0.00,0.00,0.00
2014-07-08 08:00:00,0,50000,0,0.00,0,0,0,0,50000,50000,0,50000,0,0,0,0,0.00,0.00,0.00,0.00
2014-07-08 08:10:00,0,49950,0,0.00,0,0,0,0,49495,50000,152,50000,0,0,0,0,0.00,0.00,0.00,0.00
2014-07-08 08:20:00,0,49577,0,0.00,0,0,0,0,47348,50000,880,50000,0,0,0,0,0.00,0.00,0.00,0.00
2014-07-08 08:30:00,0,49951,0,0.00,0,0,0,0,49512,50000,146,50000,0,0,0,0,0.00,0.00,0.00,0.00
2014-07-08 08:40:00,0,48887,0,0.00,0,0,0,0,43411,50000,2049,50000,0,0,0,0,0.00,0.00,0.00,0.00
2014-07-08 08:50:00,0,31587,0,0.00,0,0,0,0,19627,50000,10539,26407,0,0,0,0,0.00,0.00,0.00,0.00
2014-07-08 09:00:00,0,50000,0,0.00,0,0,0,0,50000,50000,0,50000,0,0,0,0,0.00,0.00,0.00,0.00
2014-07-08 09:10:00,0,48818,43,0.21,0,0,0,0,44402,50000,1973,50000,0,61,22,51,0.00,0.60,0.17,0.25
2014-07-08 09:20:00,0,50000,53,0.12,0,0,0,0,50000,50000,0,50000,51,61,4,51,0.05,0.30,0.08,0.12
2014-07-08 09:30:00,0,49600,56,0.21,0,0,0,0,47813,50000,804,50000,51,61,5,56,0.00,0.55,0.17,0.20
2014-07-08 09:40:00,0,49895,51,0.26,0,0,0,0,49082,50000,274,50000,51,51,0,51,0.15,0.75,0.17,0.20
2014-07-08 09:50:00,0,37066,55,2.77,0,0,0,0,19900,50000,11263,33826,51,61,5,52,0.35,5.75,1.84,3.10
2014-07-08 10:00:00,0,24640,61,3.66,0,0,0,0,12786,41563,9735,22436,61,61,0,61,0.20,9.20,3.39,2.10
2014-07-08 10:10:00,0,49281,51,0.12,0,0,0,0,46017,50000,1274,49997,51,52,0,51,0.05,0.25,0.07,0.10
2014-07-08 10:20:00,0,49870,10,0.00,0,0,0,0,49003,50000,303,50000,0,51,20,0,0.00,0.00,0.00,0.00
2014-07-08 10:30:00,0,50000,0,0.00,0,0,0,0,50000,50000,0,50000,0,0,0,0,0.00,0.00,0.00,0.00
2014-07-08 10:40:00,0,50000,0,0.00,0,0,0,0,50000,50000,0,50000,0,0,0,0,0.00,0.00,0.00,0.00
2014-07-08 10:50:00,0,45990,0,0.00,0,0,0,0,34383,50000,5544,48725,0,0,0,0,0.00,0.00,0.00,0.00
2014-07-08 11:00:00,0,49555,0,0.00,0,0,0,0,47187,50000,830,50000,0,0,0,0,0.00,0.00,0.00,0.00
2014-07-08 11:10:00,0,49555,0,0.00,0,0,0,0,47337,50000,900,50000,0,0,0,0,0.00,0.00,0.00,0.00
2014-07-08 11:20:00,0,37972,0,0.00,0,0,0,0,28277,50000,6747,36806,0,0,0,0,0.00,0.00,0.00,0.00
2014-07-08 11:30:00,0,23144,0,0.00,0,0,0,0,15730,32686,5111,23121,0,0,0,0,0.00,0.00,0.00,0.00
2014-07-08 11:40:00,0,26821,0,0.00,0,0,0,0,19097,35596,6177,27678,0,0,0,0,0.00,0.00,0.00,0.00
2014-07-08 11:50:00,0,30420,0,0.00,0,0,0,0,19022,38359,5670,30708,0,0,0,0,0.00,0.00,0.00,0.00
2014-07-08 12:00:00,0,36598,0,0.00,0,0,0,0,30169,43213,4371,36258,0,0,0,0,0.00,0.00,0.00,0.00
2014-07-08 12:10:00,0,38105,0,0.00,0,0,0,0,18233,49108,9853,39468,0,0,0,0,0.00,0.00,0.00,0.00
2014-07-08 12:20:00,0,42985,0,0.00,0,0,0,0,29530,50000,6723,45914,0,0,0,0,0.00,0.00,0.00,0.00
2014-07-08 12:30:00,0,49045,0,0.00,0,0,0,0,42362,50000,2250,50000,0,0,0,0,0.00,0.00,0.00,0.00
2014-07-08 12:40:00,0,49091,0,0.00,0,0,0,0,46168,50000,1276,49736,0,0,0,0,0.00,0.00,0.00,0.00
2014-07-08 12:50:00,0,49802,0,0.00,0,0,0,0,48489,50000,459,50000,0,0,0,0,0.00,0.00,0.00,0.00
2014-07-08 13:00:00,0,49312,0,0.00,0,0,0,0,46733,50000,1215,50000,0,0,0,0,0.00,0.00,0.00,0.00
2014-07-08 13:10:00,0,49894,0,0.00,0,0,0,0,48940,50000,318,50000,0,0,0,0,0.00,0.00,0.00,0.00
2014-07-08 13:20:00,0,49833,0,0.00,0,0,0,0,48334,50000,500,50000,0,0,0,0,0.00,0.00,0.00,0.00
2014-07-08 13:30:00,0,49252,0,0.00,0,0,0,0,44861,50000,1622,50000,0,0,0,0,0.00,0.00,0.00,0.00
2014-07-08 13:40:00,0,48071,0,0.00,0,0,0,0,44851,50000,2079,48968,0,0,0,0,0.00,0.00,0.00,0.00
2014-07-08 13:50:00,0,49970,0,0.00,0,0,0,0,49701,50000,90,50000,0,0,0,0,0.00,0.00,0.00,0.00
2014-07-08 14:00:00,0,49146,0,0.00,0,0,0,0,45637,50000,1331,50000,0,0,0,0,0.00,0.00,0.00,0.00
2014-07-08 14:10:00,0,49912,0,0.00,0,0,0,0,49559,50000,175,50000,0,0,0,0,0.00,0.00,0.00,0.00
2014-07-08 14:20:00,0,49979,0,0.00,0,0,0,0,49793,50000,62,50000,0,0,0,0,0.00,0.00,0.00,0.00
2014-07-08 14:30:00,0,49414,0,0.00,0,0,0,0,46513,50000,1198,50000,0,0,0,0,0.00,0.00,0.00,0.00
2014-07-08 14:40:00,0,49470,0,0.00,0,0,0,0,48771,50000,521,49631,0,0,0,0,0.00,0.00,0.00,0.00
2014-07-08 14:50:00,0,49933,0,0.00,0,0,0,0,49334,50000,200,50000,0,0,0,0,0.00,0.00,0.00,0.00
2014-07-08 15:00:00,0,49203,0,0.00,0,0,0,0,43981,50000,1776,49984,0,0,0,0,0.00,0.00,0.00,0.00
2014-07-08 15:10:00,0,49289,0,0.00,0,0,0,0,46296,50000,1105,49900,0,0,0,0,0.00,0.00,0.00,0.00
2014-07-08 15:20:00,0,48724,0,0.00,0,0,0,0,44609,50000,1777,50000,0,0,0,0,0.00,0.00,0.00,0.00
2014-07-08 15:30:00,0,48628,0,0.00,0,0,0,0,42414,50000,2726,50000,0,0,0,0,0.00,0.00,0.00,0.00
2014-07-08 15:40:00,0,49849,0,0.00,0,0,0,0,48791,50000,361,50000,0,0,0,0,0.00,0.00,0.00,0.00
2014-07-08 15:50:00,0,49711,0,0.00,0,0,0,0,47420,50000,769,50000,0,0,0,0,0.00,0.00,0.00,0.00
2014-07-08 16:00:00,0,47375,0,0.00,0,0,0,0,42447,50000,2515,47248,0,0,0,0,0.00,0.00,0.00,0.00
2014-07-08 16:10:00,0,48659,0,0.00,0,0,0,0,43825,50000,2208,50000,0,0,0,0,0.00,0.00,0.00,0.00
2014-07-08 16:20:00,0,49598,0,0.00,0,0,0,0,48218,50000,640,50000,0,0,0,0,0.00,0.00,0.00,0.00
2014-07-08 16:30:00,0,48600,0,0.00,0,0,0,0,44108,50000,2086,49390,0,0,0,0,0.00,0.00,0.00,0.00
2014-07-08 16:40:00,0,49236,0,0.00,0,0,0,0,47219,50000,1034,49962,0,0,0,0,0.00,0.00,0.00,0.00
2014-07-08 16:50:00,0,46590,0,0.00,0,0,0,0,41319,50000,3000,46843,0,0,0,0,0.00,0.00,0.00,0.00
2014-07-08 17:00:00,0,48895,0,0.00,0,0,0,0,45487,50000,1466,49841,0,0,0,0,0.00,0.00,0.00,0.00
2014-07-08 17:10:00,0,47885,0,0.00,0,0,0,0,43894,50000,1993,47670,0,0,0,0,0.00,0.00,0.00,0.00
2014-07-08 17:20:00,0,48012,0,0.00,0,0,0,0,42817,50000,2587,49580,0,0,0,0,0.00,0.00,0.00,0.00
2014-07-08 17:30:00,0,41046,0,0.00,0,0,0,0,32423,50000,6141,40782,0,0,0,0,0.00,0.00,0.00,0.00
2014-07-08 17:40:00,0,33408,0,0.00,0,0,0,0,5520,40239,9793,37197,0,0,0,0,0.00,0.00,0.00,0.00
2014-07-08 17:50:00,0,19753,1,0.00,0,0,0,0,1294,42840,15194,16669,0,10,3,0,0.00,0.00,0.00,0.00
2014-07-08 18:00:00,0,30777,10,0.00,0,0,0,0,6099,50000,17066,29870,10,10,0,10,0.00,0.00,0.00,0.00
2014-07-08 18:10:00,0,42599,1,0.00,0,0,0,0,15132,50000,11454,48464,0,10,3,0,0.00,0.00,0.00,0.00
2014-07-08 18:20:00,0,46056,0,0.00,0,0,0,0,37586,50000,3503,45792,0,0,0,0,0.00,0.00,0.00,0.00
2014-07-08 18:30:00,0,46156,0,0.00,0,0,0,0,40262,50000,2906,47146,0,0,0,0,0.00,0.00,0.00,0.00
2014-07-08 18:40:00,0,48371,0,0.00,0,0,0,0,45865,50000,1448,48111,0,0,0,0,0.00,0.00,0.00,0.00
2014-07-08 18:50:00,0,38739,0,0.00,0,0,0,0,9033,50000,14410,45460,0,0,0,0,0.00,0.00,0.00,0.00
2014-07-08 19:00:00,0,4878,18,0.00,0,0,0,0,213,41768,12325,490,0,34,14,10,0.00,0.00,0.00,0.00
2014-07-08 19:10:00,0,924,34,0.00,0,0,0,0,579,1508,326,793,34,34,0,34,0.00,0.00,0.00,0.00
2014-07-08 19:20:00,0,3287,28,0.00,0,0,0,0,1314,7511,1681,2812,20,34,7,34,0.00,0.00,0.00,0.00
2014-07-08 19:30:00,0,21200,20,0.00,0,0,0,0,3504,50000,15107,15706,20,20,0,20,0.00,0.00,0.00,0.00
2014-07-08 19:40:00,0,49865,20,0.00,0,0,0,0,48652,50000,404,50000,20,20,0,20,0.00,0.00,0.00,0.00
2014-07-08 19:50:00,0,49651,20,0.00,0,0,0,0,46609,50000,1014,50000,20,20,0,20,0.00,0.00,0.00,0.00
2014-07-08 20:00:00,0,49105,20,0.00,0,0,0,0,44592,50000,1812,50000,20,20,0,20,0.00,0.00,0.00,0.00
2014-07-08 20:10:00,0,49158,20,0.00,0,0,0,0,45915,50000,1434,50000,20,20,0,20,0.00,0.00,0.00,0.00
2014-07-08 20:20:00,0,49758,12,0.00,0,0,0,0,48454,50000,506,50000,0,20,10,20,0.00,0.00,0.00,0.00
2014-07-08 20:30:00,0,49986,0,0.00,0,0,0,0,49855,50000,44,50000,0,0,0,0,0.00,0.00,0.00,0.00
2014-07-08 20:40:00,0,49301,0,0.00,0,0,0,0,45562,50000,1364,50000,0,0,0,0,0.00,0.00,0.00,0.00
2014-07-08 20:50:00,0,48472,0,0.00,0,0,0,0,43908,50000,1952,49470,0,0,0,0,0.00,0.00,0.00,0.00
2014-07-08 21:00:00,0,49313,0,0.00,0,0,0,0,48054,50000,748,49560,0,0,0,0,0.00,0.00,0.00,0.00
2014-07-08 21:10:00,0,48224,0,0.00,0,0,0,0,42426,50000,2644,50000,0,0,0,0,0.00,0.00,0.00,0.00
2014-07-08 21:20:00,0,47394,0,0.00,0,0,0,0,39378,50000,4106,50000,0,0,0,0,0.00,0.00,0.00,0.00
2014-07-08 21:30:00,0,47284,0,0.00,0,0,0,0,38120,50000,3743,49328,0,0,0,0,0.00,0.00,0.00,0.00
2014-07-08 21:40:00,0,46192,0,0.00,0,0,0,0,37109,50000,3807,46781,0,0,0,0,0.00,0.00,0.00,0.00
2014-07-08 21:50:00,0,32886,0,0.00,0,0,0,0,6934,50000,18065,43556,0,0,0,0,0.00,0.00,0.00,0.00
2014-07-08 22:00:00,0,5456,3,0.00,0,0,0,0,1175,34111,9603,2228,0,4,2,4,0.00,0.00,0.00,0.00
2014-07-08 22:10:00,0,2816,4,0.00,0,0,0,0,1376,6252,1492,2248,4,4,0,4,0.00,0.00,0.00,0.00
2014-07-08 22:20:00,0,1252,4,0.00,0,0,0,0,575,2234,486,1294,4,4,0,4,0.00,0.00,0.00,0.00
2014-07-08 22:30:00,2,3371,4,0.00,0,2,1,2,813,9500,2859,2086,4,5,0,4,0.00,0.00,0.00,0.00
2014-07-08 22:40:00,2,37045,4,0.00,2,2,0,2,4201,50000,16427,45728,4,4,0,4,0.00,0.00,0.00,0.00
2014-07-08 22:50:00,2,46904,0,0.00,0,2,1,2,33067,50000,5443,49595,0,0,0,0,0.00,0.00,0.00,0.00
2014-07-08 23:00:00,1,47641,0,0.00,0,2,1,2,40981,50000,3109,49634,0,0,0,0,0.00,0.00,0.00,0.00
2014-07-08 23:10:00,1,18415,0,0.00,0,2,1,1,4000,44089,14591,12233,0,4,1,0,0.00,0.00,0.00,0.00
2014-07-08 23:20:00,2,9656,4,0.00,2,2,0,2,1659,24359,7782,7463,4,4,0,4,0.00,0.00,0.00,0.00
2014-07-08 23:30:00,2,917,4,0.00,2,2,0,2,493,1524,357,758,4,5,0,4,0.00,0.00,0.00,0.00
2014-07-08 23:40:00,2,5299,5,0.00,2,2,0,2,771,17586,5438,3746,4,5,0,5,0.00,0.00,0.00,0.00
2014-07-08 23:50:00,2,37252,3,0.00,2,2,0,2,15100,50000,11345,39163,0,4,2,4,0.00,0.00,0.00,0.00
